Wind_Speed
11 11 11 11 12 12 13 13 14 14 14 15 15 16 16 17 17 18 18 19 19 19 19 20 20 21 22 23 25 26 28 29 30 31 32 33 33 34
13 14 14 14 15 15 15 16 16 17 17 17 17 18 19 19 19 20 20 20 21 21 21 21 22 22 23 24 25 26 28 29 31 32 33 34 35 35
16 16 17 17 18 18 18 19 19 19 19 20 20 20 21 22 22 22 22 23 23 23 23 24 24 24 25 25 26 27 28 29 30 32 34 35 35 36
20 20 20 21 21 21 21 22 22 22 22 23 23 23 23 24 24 25 25 25 25 26 26 26 26 26 26 27 27 28 28 30 31 32 33 35 36 37
23 23 23 24 24 24 24 24 25 25 25 26 26 26 27 27 27 27 27 28 28 28 28 28 28 28 29 29 29 29 30 31 32 33 34 35 36 37
26 26 26 27 27 27 28 28 28 28 28 29 29 29 29 30 30 30 30 30 30 30 31 31 31 31 31 32 32 32 32 33 33 34 35 36 37 38
28 29 29 30 30 30 31 31 31 32 32 32 32 32 32 32 33 33 32 32 33 33 33 33 33 33 34 34 34 35 35 35 35 36 36 37 38 39
30 30 31 32 33 33 34 34 34 35 35 35 35 35 35 35 35 36 36 35 35 36 36 36 36 36 36 36 36 36 37 37 37 38 38 38 39 39
33 34 34 34 35 35 36 35 35 36 37 38 38 38 38 38 38 38 39 39 38 39 39 38 39 39 39 39 39 39 39 39 39 39 39 39 40 40
36 36 36 37 38 39 39 38 39 40 41 41 41 41 41 41 42 42 42 42 42 42 43 42 41 42 42 41 41 41 41 41 40 40 40 40 40 41
39 39 39 39 40 41 41 41 41 42 43 43 43 44 44 44 45 46 45 46 45 45 46 46 45 45 44 44 44 44 43 43 43 42 42 42 42 42
39 40 40 41 42 43 43 44 44 45 45 45 46 46 47 47 48 49 49 49 49 48 48 49 48 48 46 46 46 46 46 45 45 45 44 44 44 44
41 41 42 43 44 45 46 46 46 46 47 47 47 48 49 50 51 52 52 53 52 51 50 52 51 51 51 48 48 48 48 48 47 47 46 45 45 45
42 43 43 44 45 46 46 47 47 47 48 48 49 49 50 52 53 54 54 54 55 54 53 53 53 53 53 52 50 49 49 49 48 47 47 47 46 46
42 42 43 45 46 46 47 47 49 50 50 50 50 51 52 53 53 54 55 55 55 55 55 55 55 54 54 53 51 50 50 49 49 48 48 47 47 46
43 44 46 47 47 47 48 49 50 51 52 52 53 54 54 55 55 55 55 56 55 54 55 55 55 55 54 53 51 49 49 49 49 49 48 47 46 46
45 46 47 49 50 50 51 52 53 54 54 55 56 56 56 56 56 57 57 57 56 54 54 54 53 52 52 51 50 50 49 49 49 49 48 46 45 45
47 49 50 50 51 52 53 54 55 55 56 57 57 57 57 57 56 57 56 56 55 55 54 53 53 52 51 49 49 48 47 46 46 46 46 45 43 44
50 51 52 53 54 55 55 56 56 56 57 57 57 57 56 56 55 55 54 54 54 53 52 51 51 50 49 47 45 46 45 43 43 42 42 42 41 42
51 52 53 53 54 54 55 55 55 55 56 55 55 54 54 54 53 53 52 51 50 49 48 48 47 47 45 44 41 41 42 42 41 40 40 40 39 39
53 53 53 54 53 52 53 53 52 52 52 52 52 52 51 51 50 50 49 48 47 46 44 43 43 42 41 40 38 37 38 39 38 37 37 37 37 36
53 53 53 52 51 51 50 49 49 48 48 48 48 47 46 46 46 46 45 44 42 41 39 38 37 36 35 34 33 33 33 34 36 36 35 35 34 34
51 50 49 48 48 48 47 46 45 45 44 44 43 43 42 42 41 41 39 38 36 35 34 34 33 33 33 32 31 31 31 32 32 32 32 33 33 32
Wind_Direction
279 285 288 293 297 300 301 302 303 304 304 304 304 304 304 305 305 304 302 299 297 294 292 288 284 281 277 274 270 266 263 261 260 259 258 257 255 253
278 282 287 291 294 295 296 298 299 299 299 300 299 300 300 301 301 300 300 297 296 295 293 290 286 282 278 276 273 270 267 264 262 260 259 258 256 255
276 281 285 288 290 292 293 294 295 295 295 296 296 296 297 297 297 297 298 296 294 293 292 291 288 284 280 278 275 273 269 267 265 263 261 259 258 257
277 281 284 285 286 288 290 291 291 291 291 293 293 293 293 293 293 293 293 293 293 292 291 290 288 285 282 280 277 275 272 269 267 265 263 261 259 257
278 280 282 284 285 286 288 288 289 289 289 289 290 290 291 290 290 290 290 291 290 290 289 288 287 285 283 281 279 277 274 271 269 267 265 263 262 260
278 280 281 282 283 285 287 287 287 287 287 287 287 287 288 288 288 288 288 288 288 287 287 286 285 284 283 281 280 278 276 273 271 270 267 265 263 262
277 279 280 281 282 284 285 285 285 285 285 285 285 285 286 285 285 285 285 285 286 285 285 284 283 282 281 281 280 278 276 274 273 271 269 267 265 263
275 277 278 280 281 282 283 285 285 284 284 284 283 284 283 283 283 283 282 283 283 283 283 283 283 282 281 280 279 277 276 275 274 272 271 269 267 264
276 277 279 280 280 281 282 283 283 282 282 283 282 282 282 282 282 281 281 281 282 281 281 281 281 281 280 279 278 277 276 275 274 272 271 270 268 266
277 278 279 279 280 280 280 281 281 281 281 281 281 281 281 281 281 280 280 280 280 280 280 280 279 279 279 278 278 276 275 274 273 272 271 269 268 267
277 278 279 279 280 280 280 281 280 281 280 280 280 280 279 280 280 280 280 279 279 279 280 280 279 278 278 277 276 275 274 273 272 271 270 269 268 267
278 279 280 281 280 279 280 280 280 280 279 279 280 280 280 280 280 279 279 279 279 278 278 278 278 277 276 276 275 274 273 273 272 271 270 269 268 267
278 278 278 279 280 280 280 280 279 279 279 279 279 279 279 279 279 279 279 279 279 278 276 276 277 277 276 274 273 273 273 272 271 270 270 269 268 267
279 277 277 278 279 280 279 279 279 279 279 280 280 280 280 280 279 279 279 279 279 278 276 276 276 276 276 274 273 272 271 271 270 270 269 268 267 266
280 278 278 278 280 279 280 280 280 280 281 281 281 281 281 281 281 281 280 279 279 278 277 277 277 276 276 274 272 270 270 270 269 268 267 266 265 265
280 279 280 280 280 280 281 281 281 281 280 280 281 281 281 281 281 280 279 278 277 277 276 276 276 275 275 274 272 270 269 268 267 267 266 265 264 263
280 280 281 281 281 281 281 281 281 281 281 281 281 281 281 281 281 280 279 278 277 276 275 275 275 275 274 273 272 270 268 267 266 265 264 264 262 261
281 281 281 281 281 282 282 282 282 282 282 282 282 282 281 281 280 279 278 277 276 275 275 274 274 273 273 272 272 270 268 266 264 263 263 263 261 260
283 282 282 282 283 282 282 282 282 282 282 282 282 282 283 282 281 279 277 276 276 275 275 274 273 272 271 269 268 267 266 265 263 262 262 261 260 258
284 284 284 284 284 284 283 283 283 282 282 283 283 283 283 282 281 280 279 277 275 274 274 272 271 270 269 267 265 264 264 264 263 262 261 260 259 258
284 284 284 285 285 285 285 284 284 283 283 283 283 283 283 282 281 280 278 276 275 274 273 271 269 268 267 267 265 262 261 263 263 262 260 259 259 258
285 285 285 285 285 285 285 285 285 285 285 285 285 284 283 282 282 280 279 276 275 273 271 269 267 265 265 266 265 262 261 262 263 261 259 258 258 257
286 286 286 285 286 286 286 286 286 286 286 286 285 285 284 284 284 282 279 276 273 270 268 266 265 264 266 265 265 262 261 261 262 261 260 258 257 255
Height
5872 5871 5870 5870 5868 5867 5866 5865 5865 5863 5862 5860 5859 5857 5855 5853 5851 5849 5848 5846 5844 5843 5841 5840 5839 5838 5837 5836 5836 5835 5835 5835 5836 5836 5837 5838 5838 5840
5867 5867 5866 5865 5864 5862 5861 5860 5859 5858 5857 5855 5854 5852 5850 5848 5846 5845 5843 5841 5839 5837 5836 5834 5833 5831 5830 5829 5828 5828 5827 5827 5827 5828 5828 5829 5830 5831
5862 5861 5861 5859 5858 5857 5856 5854 5853 5852 5851 5849 5848 5846 5844 5842 5840 5838 5837 5835 5833 5831 5829 5827 5826 5825 5823 5822 5821 5820 5819 5819 5819 5819 5819 5820 5820 5822
5857 5856 5855 5854 5852 5851 5850 5848 5847 5846 5844 5843 5841 5839 5838 5836 5834 5832 5830 5828 5826 5824 5822 5820 5818 5817 5816 5814 5813 5812 5811 5810 5810 5810 5810 5810 5811 5811
5850 5849 5848 5847 5846 5844 5843 5841 5840 5838 5837 5835 5834 5832 5830 5828 5826 5824 5822 5820 5818 5816 5814 5812 5810 5808 5807 5806 5804 5803 5802 5801 5800 5800 5800 5800 5800 5801
5843 5842 5841 5840 5838 5837 5835 5833 5832 5830 5828 5827 5825 5823 5821 5819 5817 5816 5814 5812 5809 5807 5805 5803 5801 5799 5797 5796 5795 5794 5792 5791 5790 5790 5790 5789 5789 5790
5835 5834 5833 5831 5830 5828 5827 5825 5823 5821 5819 5817 5816 5814 5812 5810 5808 5806 5804 5802 5800 5798 5796 5794 5792 5790 5788 5786 5784 5783 5782 5781 5780 5779 5779 5778 5778 5779
5826 5825 5823 5822 5821 5819 5817 5816 5814 5812 5810 5808 5806 5804 5802 5799 5797 5795 5793 5792 5790 5788 5785 5784 5782 5780 5777 5775 5774 5772 5771 5770 5769 5768 5767 5767 5767 5767
5817 5815 5814 5812 5810 5808 5807 5805 5803 5801 5799 5797 5795 5793 5790 5788 5786 5784 5782 5780 5778 5776 5774 5773 5770 5768 5766 5764 5762 5761 5759 5758 5757 5756 5755 5755 5754 5755
5807 5805 5803 5802 5800 5798 5796 5794 5792 5789 5786 5784 5783 5781 5778 5776 5773 5771 5769 5767 5766 5763 5760 5760 5758 5756 5754 5752 5750 5749 5747 5746 5745 5744 5744 5743 5742 5742
5795 5793 5792 5790 5788 5786 5784 5782 5780 5777 5774 5771 5770 5768 5765 5762 5760 5757 5755 5753 5752 5750 5746 5744 5744 5742 5740 5739 5736 5735 5734 5733 5732 5731 5730 5730 5729 5729
5783 5782 5779 5777 5775 5772 5770 5768 5766 5764 5761 5758 5756 5754 5751 5748 5745 5742 5740 5737 5735 5735 5732 5729 5728 5726 5726 5725 5722 5720 5719 5718 5718 5717 5717 5716 5716 5715
5771 5769 5767 5764 5762 5759 5756 5754 5752 5749 5747 5744 5742 5739 5736 5733 5730 5726 5723 5721 5719 5718 5716 5713 5711 5709 5708 5709 5708 5705 5704 5703 5703 5703 5702 5702 5702 5702
5758 5756 5753 5750 5748 5745 5742 5740 5737 5734 5732 5729 5727 5724 5721 5717 5714 5710 5707 5704 5702 5701 5699 5696 5694 5692 5691 5691 5692 5690 5688 5687 5687 5687 5687 5687 5687 5687
5744 5742 5740 5737 5734 5731 5728 5725 5722 5719 5717 5714 5711 5708 5704 5701 5697 5694 5691 5687 5685 5683 5681 5678 5676 5675 5673 5673 5674 5674 5673 5672 5671 5671 5672 5672 5672 5673
5731 5728 5726 5723 5720 5717 5714 5710 5707 5703 5700 5697 5694 5691 5687 5683 5680 5676 5673 5670 5668 5667 5663 5660 5658 5657 5656 5655 5656 5656 5656 5656 5656 5654 5655 5656 5657 5658
5717 5714 5711 5707 5704 5701 5697 5693 5690 5686 5682 5679 5676 5673 5669 5665 5662 5658 5655 5652 5650 5649 5648 5644 5641 5639 5639 5638 5639 5639 5639 5639 5639 5639 5639 5641 5643 5643
5702 5698 5695 5692 5688 5684 5681 5677 5673 5668 5664 5660 5657 5653 5650 5646 5643 5640 5636 5634 5632 5631 5629 5628 5625 5623 5623 5623 5623 5622 5622 5623 5623 5623 5624 5626 5628 5629
5686 5682 5679 5675 5671 5667 5663 5658 5654 5650 5646 5642 5638 5634 5631 5628 5624 5622 5618 5616 5614 5613 5612 5610 5608 5606 5606 5608 5608 5606 5606 5608 5608 5609 5610 5611 5614 5616
5668 5665 5661 5657 5652 5648 5644 5640 5636 5632 5628 5624 5620 5616 5613 5610 5607 5604 5601 5599 5597 5596 5595 5594 5592 5591 5590 5592 5593 5594 5593 5593 5594 5596 5597 5598 5600 5602
5651 5647 5643 5639 5635 5631 5627 5623 5619 5615 5611 5607 5603 5599 5596 5593 5590 5587 5585 5582 5581 5580 5580 5580 5578 5577 5577 5577 5579 5581 5581 5580 5581 5582 5584 5585 5587 5589
5634 5630 5626 5622 5618 5614 5610 5606 5602 5598 5594 5590 5587 5583 5580 5577 5574 5571 5569 5567 5566 5565 5565 5565 5565 5565 5565 5565 5567 5568 5569 5569 5569 5570 5572 5574 5575 5577
5617 5613 5609 5605 5601 5597 5594 5590 5587 5583 5579 5576 5572 5569 5566 5563 5560 5557 5555 5553 5552 5552 5553 5553 5554 5554 5554 5555 5556 5557 5558 5558 5558 5559 5561 5562 5564 5566